Year,Month,Day,Hour,Minute,Value (Times are PST for temperature in C)
2020,10,02,00,00,13.60
2020,10,02,00,01,13.60
2020,10,02,00,02,13.60
2020,10,02,00,03,13.50
2020,10,02,00,04,13.50
2020,10,02,00,05,13.50
2020,10,02,00,06,13.50
2020,10,02,00,07,13.50
2020,10,02,00,08,13.50
2020,10,02,00,09,13.60
2020,10,02,00,10,13.60
2020,10,02,00,11,13.60
2020,10,02,00,12,13.60
2020,10,02,00,13,13.60
2020,10,02,00,14,13.60
2020,10,02,00,15,13.60
2020,10,02,00,16,13.60
2020,10,02,00,17,13.60
2020,10,02,00,18,13.60
2020,10,02,00,19,13.60
2020,10,02,00,20,13.60
2020,10,02,00,21,13.60
2020,10,02,00,22,13.60
2020,10,02,00,23,13.60
2020,10,02,00,24,13.60
2020,10,02,00,25,13.60
2020,10,02,00,26,13.60
2020,10,02,00,27,13.60
2020,10,02,00,28,13.60
2020,10,02,00,29,13.60
2020,10,02,00,30,13.60
2020,10,02,00,31,13.60
2020,10,02,00,32,13.60
2020,10,02,00,33,13.70
2020,10,02,00,34,13.70
2020,10,02,00,35,13.70
2020,10,02,00,36,13.70
2020,10,02,00,37,13.70
2020,10,02,00,38,13.70
2020,10,02,00,39,13.70
2020,10,02,00,40,13.70
2020,10,02,00,41,13.70
2020,10,02,00,42,13.70
2020,10,02,00,43,13.70
2020,10,02,00,44,13.70
2020,10,02,00,45,13.70
2020,10,02,00,46,13.70
2020,10,02,00,47,13.70
2020,10,02,00,48,13.70
2020,10,02,00,49,13.70
2020,10,02,00,50,13.60
2020,10,02,00,51,13.60
2020,10,02,00,52,13.60
2020,10,02,00,53,13.60
2020,10,02,00,54,13.60
2020,10,02,00,55,13.60
2020,10,02,00,56,13.60
2020,10,02,00,57,13.60
2020,10,02,00,58,13.70
2020,10,02,00,59,13.70
2020,10,02,01,00,13.70
2020,10,02,01,01,13.70
2020,10,02,01,02,13.70
2020,10,02,01,03,13.70
2020,10,02,01,04,13.70
2020,10,02,01,05,13.70
2020,10,02,01,06,13.70
2020,10,02,01,07,13.70
2020,10,02,01,08,13.70
2020,10,02,01,09,13.80
2020,10,02,01,10,13.80
2020,10,02,01,11,13.80
2020,10,02,01,12,13.80
2020,10,02,01,13,13.80
2020,10,02,01,14,13.80
2020,10,02,01,15,13.80
2020,10,02,01,16,13.80
2020,10,02,01,17,13.80
2020,10,02,01,18,13.90
2020,10,02,01,19,13.90
2020,10,02,01,20,13.90
2020,10,02,01,21,13.90
2020,10,02,01,22,13.90
2020,10,02,01,23,13.90
2020,10,02,01,24,13.90
2020,10,02,01,25,13.90
2020,10,02,01,26,13.90
2020,10,02,01,27,13.90
2020,10,02,01,28,13.90
2020,10,02,01,29,13.90
2020,10,02,01,30,13.90
2020,10,02,01,31,13.90
2020,10,02,01,32,13.90
2020,10,02,01,33,13.90
2020,10,02,01,34,13.90
2020,10,02,01,35,13.90
2020,10,02,01,36,13.90
2020,10,02,01,37,13.90
2020,10,02,01,38,13.90
2020,10,02,01,39,14.00
2020,10,02,01,40,14.00
2020,10,02,01,41,14.00
2020,10,02,01,42,14.00
2020,10,02,01,43,14.00
2020,10,02,01,44,14.00
2020,10,02,01,45,14.00
2020,10,02,01,46,14.00
2020,10,02,01,47,14.10
2020,10,02,01,48,14.10
2020,10,02,01,49,14.10
2020,10,02,01,50,14.10
2020,10,02,01,51,14.10
2020,10,02,01,52,14.10
2020,10,02,01,53,14.10
2020,10,02,01,54,14.10
2020,10,02,01,55,14.10
2020,10,02,01,56,14.10
2020,10,02,01,57,14.10
2020,10,02,01,58,14.10
2020,10,02,01,59,14.10
2020,10,02,02,00,14.10
2020,10,02,02,01,14.10
2020,10,02,02,02,14.20
2020,10,02,02,03,14.20
2020,10,02,02,04,14.20
2020,10,02,02,05,14.20
2020,10,02,02,06,14.20
2020,10,02,02,07,14.20
2020,10,02,02,08,14.20
2020,10,02,02,09,14.20
2020,10,02,02,10,14.20
2020,10,02,02,11,14.20
2020,10,02,02,12,14.20
2020,10,02,02,13,14.20
2020,10,02,02,14,14.20
2020,10,02,02,15,14.20
2020,10,02,02,16,14.30
2020,10,02,02,17,14.30
2020,10,02,02,18,14.30
2020,10,02,02,19,14.30
2020,10,02,02,20,14.30
2020,10,02,02,21,14.30
2020,10,02,02,22,14.30
2020,10,02,02,23,14.30
2020,10,02,02,24,14.30
2020,10,02,02,25,14.30
2020,10,02,02,26,14.30
2020,10,02,02,27,14.30
2020,10,02,02,28,14.30
2020,10,02,02,29,14.30
2020,10,02,02,30,14.30
2020,10,02,02,31,14.30
2020,10,02,02,32,14.30
2020,10,02,02,33,14.30
2020,10,02,02,34,14.30
2020,10,02,02,35,14.30
2020,10,02,02,36,14.30
2020,10,02,02,37,14.30
2020,10,02,02,38,14.30
2020,10,02,02,39,14.30
2020,10,02,02,40,14.30
2020,10,02,02,41,14.30
2020,10,02,02,42,14.30
2020,10,02,02,43,14.30
2020,10,02,02,44,14.30
2020,10,02,02,45,14.40
2020,10,02,02,46,14.40
2020,10,02,02,47,14.40
2020,10,02,02,48,14.40
2020,10,02,02,49,14.40
2020,10,02,02,50,14.40
2020,10,02,02,51,14.40
2020,10,02,02,52,14.40
2020,10,02,02,53,14.40
2020,10,02,02,54,14.40
2020,10,02,02,55,14.40
2020,10,02,02,56,14.40
2020,10,02,02,57,14.40
2020,10,02,02,58,14.40
2020,10,02,02,59,14.40
2020,10,02,03,00,14.40
2020,10,02,03,01,14.50
2020,10,02,03,02,14.50
2020,10,02,03,03,14.50
2020,10,02,03,04,14.50
2020,10,02,03,05,14.50
2020,10,02,03,06,14.50
2020,10,02,03,07,14.50
2020,10,02,03,08,14.60
2020,10,02,03,09,14.60
2020,10,02,03,10,14.60
2020,10,02,03,11,14.60
2020,10,02,03,12,14.60
2020,10,02,03,13,14.60
2020,10,02,03,14,14.60
2020,10,02,03,15,14.60
2020,10,02,03,16,14.60
2020,10,02,03,17,14.60
2020,10,02,03,18,14.60
2020,10,02,03,19,14.60
2020,10,02,03,20,14.60
2020,10,02,03,21,14.60
2020,10,02,03,22,14.60
2020,10,02,03,23,14.60
2020,10,02,03,24,14.60
2020,10,02,03,25,14.60
2020,10,02,03,26,14.60
2020,10,02,03,27,14.60
2020,10,02,03,28,14.60
2020,10,02,03,29,14.60
2020,10,02,03,30,14.60
2020,10,02,03,31,14.60
2020,10,02,03,32,14.60
2020,10,02,03,33,14.60
2020,10,02,03,34,14.60
2020,10,02,03,35,14.60
2020,10,02,03,36,14.60
2020,10,02,03,37,14.60
2020,10,02,03,38,14.60
2020,10,02,03,39,14.60
2020,10,02,03,40,14.70
2020,10,02,03,41,14.70
2020,10,02,03,42,14.70
2020,10,02,03,43,14.70
2020,10,02,03,44,14.70
2020,10,02,03,45,14.70
2020,10,02,03,46,14.70
2020,10,02,03,47,14.70
2020,10,02,03,48,14.70
2020,10,02,03,49,14.70
2020,10,02,03,50,14.70
2020,10,02,03,51,14.70
2020,10,02,03,52,14.70
2020,10,02,03,53,14.70
2020,10,02,03,54,14.70
2020,10,02,03,55,14.70
2020,10,02,03,56,14.60
2020,10,02,03,57,14.60
2020,10,02,03,58,14.60
2020,10,02,03,59,14.60
2020,10,02,04,00,14.60
2020,10,02,04,01,14.60
2020,10,02,04,02,14.60
2020,10,02,04,03,14.60
2020,10,02,04,04,14.60
2020,10,02,04,05,14.60
2020,10,02,04,06,14.60
2020,10,02,04,07,14.60
2020,10,02,04,08,14.60
2020,10,02,04,09,14.60
2020,10,02,04,10,14.60
2020,10,02,04,11,14.60
2020,10,02,04,12,14.60
2020,10,02,04,13,14.60
2020,10,02,04,14,14.60
2020,10,02,04,15,14.60
2020,10,02,04,16,14.60
2020,10,02,04,17,14.60
2020,10,02,04,18,14.60
2020,10,02,04,19,14.60
2020,10,02,04,20,14.60
2020,10,02,04,21,14.60
2020,10,02,04,22,14.60
2020,10,02,04,23,14.60
2020,10,02,04,24,14.60
2020,10,02,04,25,14.60
2020,10,02,04,26,14.50
2020,10,02,04,27,14.50
2020,10,02,04,28,14.50
2020,10,02,04,29,14.50
2020,10,02,04,30,14.50
2020,10,02,04,31,14.50
2020,10,02,04,32,14.50
2020,10,02,04,33,14.50
2020,10,02,04,34,14.50
2020,10,02,04,35,14.50
2020,10,02,04,36,14.50
2020,10,02,04,37,14.50
2020,10,02,04,38,14.50
2020,10,02,04,39,14.50
2020,10,02,04,40,14.50
2020,10,02,04,41,14.50
2020,10,02,04,42,14.40
2020,10,02,04,43,14.40
2020,10,02,04,44,14.40
2020,10,02,04,45,14.40
2020,10,02,04,46,14.50
2020,10,02,04,47,14.50
2020,10,02,04,48,14.50
2020,10,02,04,49,14.50
2020,10,02,04,50,14.50
2020,10,02,04,51,14.50
2020,10,02,04,52,14.50
2020,10,02,04,53,14.50
2020,10,02,04,54,14.40
2020,10,02,04,55,14.40
2020,10,02,04,56,14.40
2020,10,02,04,57,14.40
2020,10,02,04,58,14.50
2020,10,02,04,59,14.50
2020,10,02,05,00,14.50
2020,10,02,05,01,14.50
2020,10,02,05,02,14.50
2020,10,02,05,03,14.50
2020,10,02,05,04,14.50
2020,10,02,05,05,14.50
2020,10,02,05,06,14.50
2020,10,02,05,07,14.50
2020,10,02,05,08,14.50
2020,10,02,05,09,14.50
2020,10,02,05,10,14.50
2020,10,02,05,11,14.50
2020,10,02,05,12,14.50
2020,10,02,05,13,14.50
2020,10,02,05,14,14.50
2020,10,02,05,15,14.50
2020,10,02,05,16,14.50
2020,10,02,05,17,14.50
2020,10,02,05,18,14.50
2020,10,02,05,19,14.50
2020,10,02,05,20,14.50
2020,10,02,05,21,14.50
2020,10,02,05,22,14.50
2020,10,02,05,23,14.40
2020,10,02,05,24,14.40
2020,10,02,05,25,14.40
2020,10,02,05,26,14.40
2020,10,02,05,27,14.40
2020,10,02,05,28,14.30
2020,10,02,05,29,14.30
2020,10,02,05,30,14.30
2020,10,02,05,31,14.30
2020,10,02,05,32,14.30
2020,10,02,05,33,14.30
2020,10,02,05,34,14.30
2020,10,02,05,35,14.30
2020,10,02,05,36,14.30
2020,10,02,05,37,14.30
2020,10,02,05,38,14.30
2020,10,02,05,39,14.30
2020,10,02,05,40,14.30
2020,10,02,05,41,14.30
2020,10,02,05,42,14.30
2020,10,02,05,43,14.30
2020,10,02,05,44,14.30
2020,10,02,05,45,14.30
2020,10,02,05,46,14.30
2020,10,02,05,47,14.30
2020,10,02,05,48,14.30
2020,10,02,05,49,14.30
2020,10,02,05,50,14.20
2020,10,02,05,51,14.20
2020,10,02,05,52,14.20
2020,10,02,05,53,14.20
2020,10,02,05,54,14.20
2020,10,02,05,55,14.20
2020,10,02,05,56,14.20
2020,10,02,05,57,14.20
2020,10,02,05,58,14.20
2020,10,02,05,59,14.20
2020,10,02,06,00,14.20
2020,10,02,06,01,14.20
2020,10,02,06,02,14.20
2020,10,02,06,03,14.20
2020,10,02,06,04,14.20
2020,10,02,06,05,14.20
2020,10,02,06,06,14.20
2020,10,02,06,07,14.20
2020,10,02,06,08,14.20
2020,10,02,06,09,14.20
2020,10,02,06,10,14.20
2020,10,02,06,11,14.20
2020,10,02,06,12,14.20
2020,10,02,06,13,14.20
2020,10,02,06,14,14.20
2020,10,02,06,15,14.20
2020,10,02,06,16,14.20
2020,10,02,06,17,14.20
2020,10,02,06,18,14.20
2020,10,02,06,19,14.20
2020,10,02,06,20,14.20
2020,10,02,06,21,14.10
2020,10,02,06,22,14.10
2020,10,02,06,23,14.10
2020,10,02,06,24,14.10
2020,10,02,06,25,14.10
2020,10,02,06,26,14.00
2020,10,02,06,27,14.00
2020,10,02,06,28,14.00
2020,10,02,06,29,14.00
2020,10,02,06,30,13.90
2020,10,02,06,31,13.90
2020,10,02,06,32,13.90
2020,10,02,06,33,13.90
2020,10,02,06,34,13.90
2020,10,02,06,35,13.90
2020,10,02,06,36,13.90
2020,10,02,06,37,13.90
2020,10,02,06,38,13.80
2020,10,02,06,39,13.80
2020,10,02,06,40,13.80
2020,10,02,06,41,13.80
2020,10,02,06,42,13.80
2020,10,02,06,43,13.80
2020,10,02,06,44,13.80
2020,10,02,06,45,13.80
2020,10,02,06,46,13.80
2020,10,02,06,47,13.80
2020,10,02,06,48,13.80
2020,10,02,06,49,13.80
2020,10,02,06,50,13.80
2020,10,02,06,51,13.80
2020,10,02,06,52,13.80
2020,10,02,06,53,13.80
2020,10,02,06,54,13.80
2020,10,02,06,55,13.80
2020,10,02,06,56,13.80
2020,10,02,06,57,13.80
2020,10,02,06,58,13.80
2020,10,02,06,59,13.80
2020,10,02,07,00,13.80
2020,10,02,07,01,13.80
2020,10,02,07,02,13.80
2020,10,02,07,03,13.80
2020,10,02,07,04,13.80
2020,10,02,07,05,13.80
2020,10,02,07,06,13.80
2020,10,02,07,07,13.80
2020,10,02,07,08,13.80
2020,10,02,07,09,13.80
2020,10,02,07,10,13.80
2020,10,02,07,11,13.80
2020,10,02,07,12,13.80
2020,10,02,07,13,13.80
2020,10,02,07,14,13.80
2020,10,02,07,15,13.80
2020,10,02,07,16,13.80
2020,10,02,07,17,13.80
2020,10,02,07,18,13.80
2020,10,02,07,19,13.80
2020,10,02,07,20,13.90
2020,10,02,07,21,13.90
2020,10,02,07,22,13.90
2020,10,02,07,23,13.90
2020,10,02,07,24,13.90
2020,10,02,07,25,13.90
2020,10,02,07,26,13.90
2020,10,02,07,27,13.90
2020,10,02,07,28,13.90
2020,10,02,07,29,13.90
2020,10,02,07,30,13.90
2020,10,02,07,31,13.90
2020,10,02,07,32,13.90
2020,10,02,07,33,13.90
2020,10,02,07,34,13.90
2020,10,02,07,35,13.90
2020,10,02,07,36,13.90
2020,10,02,07,37,13.90
2020,10,02,07,38,13.90
2020,10,02,07,39,13.90
2020,10,02,07,40,13.90
2020,10,02,07,41,13.90
2020,10,02,07,42,13.90
2020,10,02,07,43,13.90
2020,10,02,07,44,13.90
2020,10,02,07,45,13.90
2020,10,02,07,46,13.90
2020,10,02,07,47,13.90
2020,10,02,07,48,13.90
2020,10,02,07,49,13.90
2020,10,02,07,50,13.90
2020,10,02,07,51,13.90
2020,10,02,07,52,13.90
2020,10,02,07,53,13.90
2020,10,02,07,54,13.90
2020,10,02,07,55,13.90
2020,10,02,07,56,13.90
2020,10,02,07,57,13.90
2020,10,02,07,58,13.80
2020,10,02,07,59,13.80
2020,10,02,08,00,13.80
2020,10,02,08,01,13.80
2020,10,02,08,02,13.80
2020,10,02,08,03,13.80
2020,10,02,08,04,13.80
2020,10,02,08,05,13.80
2020,10,02,08,06,13.80
2020,10,02,08,07,13.90
2020,10,02,08,08,13.90
2020,10,02,08,09,13.90
2020,10,02,08,10,13.90
2020,10,02,08,11,13.90
2020,10,02,08,12,13.90
2020,10,02,08,13,13.90
2020,10,02,08,14,13.90
2020,10,02,08,15,13.90
2020,10,02,08,16,13.90
2020,10,02,08,17,13.80
2020,10,02,08,18,13.80
2020,10,02,08,19,13.90
2020,10,02,08,20,13.90
2020,10,02,08,21,13.90
2020,10,02,08,22,13.90
2020,10,02,08,23,13.90
2020,10,02,08,24,13.80
2020,10,02,08,25,13.80
2020,10,02,08,26,13.80
2020,10,02,08,27,13.80
2020,10,02,08,28,13.80
2020,10,02,08,29,13.80
2020,10,02,08,30,13.80
2020,10,02,08,31,13.80
2020,10,02,08,32,13.80
2020,10,02,08,33,13.80
2020,10,02,08,34,13.80
2020,10,02,08,35,13.80
2020,10,02,08,36,13.80
2020,10,02,08,37,13.80
2020,10,02,08,38,13.80
2020,10,02,08,39,13.80
2020,10,02,08,40,13.80
2020,10,02,08,41,13.80
2020,10,02,08,42,13.80
2020,10,02,08,43,13.80
2020,10,02,08,44,13.90
2020,10,02,08,45,13.90
2020,10,02,08,46,13.90
2020,10,02,08,47,13.80
2020,10,02,08,48,13.80
2020,10,02,08,49,13.80
2020,10,02,08,50,13.80
2020,10,02,08,51,13.80
2020,10,02,08,52,13.80
2020,10,02,08,53,13.80
2020,10,02,08,54,13.80
2020,10,02,08,55,13.80
2020,10,02,08,56,13.80
2020,10,02,08,57,13.80
2020,10,02,08,58,13.80
2020,10,02,08,59,13.80
2020,10,02,09,00,13.80
2020,10,02,09,01,13.80
2020,10,02,09,02,13.80
2020,10,02,09,03,13.80
2020,10,02,09,04,13.80
2020,10,02,09,05,13.80
2020,10,02,09,06,13.80
2020,10,02,09,07,13.80
2020,10,02,09,08,13.80
2020,10,02,09,09,13.80
2020,10,02,09,10,13.80
2020,10,02,09,11,13.80
2020,10,02,09,12,13.80
2020,10,02,09,13,13.80
2020,10,02,09,14,13.80
2020,10,02,09,15,13.80
2020,10,02,09,16,13.90
2020,10,02,09,17,13.90
2020,10,02,09,18,13.90
2020,10,02,09,19,13.90
2020,10,02,09,20,13.90
2020,10,02,09,21,13.90
2020,10,02,09,22,13.90
2020,10,02,09,23,13.90
2020,10,02,09,24,13.90
2020,10,02,09,25,13.90
2020,10,02,09,26,13.90
2020,10,02,09,27,13.90
2020,10,02,09,28,13.90
2020,10,02,09,29,13.90
2020,10,02,09,30,13.90
2020,10,02,09,31,13.90
2020,10,02,09,32,13.90
2020,10,02,09,33,13.90
2020,10,02,09,34,13.90
2020,10,02,09,35,13.90
2020,10,02,09,36,13.90
2020,10,02,09,37,13.90
2020,10,02,09,38,13.90
2020,10,02,09,39,14.00
2020,10,02,09,40,14.00
2020,10,02,09,41,14.00
2020,10,02,09,42,14.00
2020,10,02,09,43,14.00
2020,10,02,09,44,14.10
2020,10,02,09,45,14.10
2020,10,02,09,46,14.10
2020,10,02,09,47,14.10
2020,10,02,09,48,14.10
2020,10,02,09,49,14.20
2020,10,02,09,50,14.20
2020,10,02,09,51,14.30
2020,10,02,09,52,14.30
2020,10,02,09,53,14.30
2020,10,02,09,54,14.30
2020,10,02,09,55,14.20
2020,10,02,09,56,14.20
2020,10,02,09,57,14.20
2020,10,02,09,58,14.20
2020,10,02,09,59,14.20
2020,10,02,10,00,14.20
2020,10,02,10,01,14.20
2020,10,02,10,02,14.20
2020,10,02,10,03,14.20
2020,10,02,10,04,14.20
2020,10,02,10,05,14.20
2020,10,02,10,06,14.20
2020,10,02,10,07,14.20
2020,10,02,10,08,14.20
2020,10,02,10,09,14.20
2020,10,02,10,10,14.20
2020,10,02,10,11,14.20
2020,10,02,10,12,14.20
2020,10,02,10,13,14.30
2020,10,02,10,14,14.30
2020,10,02,10,15,14.30
2020,10,02,10,16,14.30
2020,10,02,10,17,14.30
2020,10,02,10,18,14.30
2020,10,02,10,19,14.30
2020,10,02,10,20,14.30
2020,10,02,10,21,14.30
2020,10,02,10,22,14.30
2020,10,02,10,23,14.30
2020,10,02,10,24,14.30
2020,10,02,10,25,14.30
2020,10,02,10,26,14.30
2020,10,02,10,27,14.30
2020,10,02,10,28,14.30
2020,10,02,10,29,14.40
2020,10,02,10,30,14.40
2020,10,02,10,31,14.40
2020,10,02,10,32,14.40
2020,10,02,10,33,14.40
2020,10,02,10,34,14.40
2020,10,02,10,35,14.40
2020,10,02,10,36,14.40
2020,10,02,10,37,14.40
2020,10,02,10,38,14.40
2020,10,02,10,39,14.40
2020,10,02,10,40,14.40
2020,10,02,10,41,14.40
2020,10,02,10,42,14.40
2020,10,02,10,43,14.40
2020,10,02,10,44,14.40
2020,10,02,10,45,14.40
2020,10,02,10,46,14.40
2020,10,02,10,47,14.40
2020,10,02,10,48,14.50
2020,10,02,10,49,14.50
2020,10,02,10,50,14.50
2020,10,02,10,51,14.50
2020,10,02,10,52,14.50
2020,10,02,10,53,14.50
2020,10,02,10,54,14.50
2020,10,02,10,55,14.40
2020,10,02,10,56,14.40
2020,10,02,10,57,14.50
2020,10,02,10,58,14.50
2020,10,02,10,59,14.50
2020,10,02,11,00,14.50
2020,10,02,11,01,14.40
2020,10,02,11,02,14.40
2020,10,02,11,03,14.50
2020,10,02,11,04,14.50
2020,10,02,11,05,14.50
2020,10,02,11,06,14.50
2020,10,02,11,07,14.50
2020,10,02,11,08,14.60
2020,10,02,11,09,14.60
2020,10,02,11,10,14.60
2020,10,02,11,11,14.60
2020,10,02,11,12,14.60
2020,10,02,11,13,14.70
2020,10,02,11,14,14.70
2020,10,02,11,15,14.70
2020,10,02,11,16,14.70
2020,10,02,11,17,14.70
2020,10,02,11,18,14.70
2020,10,02,11,19,14.70
2020,10,02,11,20,14.70
2020,10,02,11,21,14.70
2020,10,02,11,22,14.80
2020,10,02,11,23,14.80
2020,10,02,11,24,14.80
2020,10,02,11,25,14.80
2020,10,02,11,26,14.80
2020,10,02,11,27,14.80
2020,10,02,11,28,14.80
2020,10,02,11,29,14.80
2020,10,02,11,30,14.80
2020,10,02,11,31,14.80
2020,10,02,11,32,14.80
2020,10,02,11,33,14.80
2020,10,02,11,34,14.80
2020,10,02,11,35,14.80
2020,10,02,11,36,14.80
2020,10,02,11,37,14.80
2020,10,02,11,38,14.80
2020,10,02,11,39,14.80
2020,10,02,11,40,14.80
2020,10,02,11,41,14.80
2020,10,02,11,42,14.80
2020,10,02,11,43,14.90
2020,10,02,11,44,14.90
2020,10,02,11,45,14.90
2020,10,02,11,46,14.90
2020,10,02,11,47,14.90
2020,10,02,11,48,14.90
2020,10,02,11,49,14.90
2020,10,02,11,50,14.90
2020,10,02,11,51,14.90
2020,10,02,11,52,15.00
2020,10,02,11,53,15.00
2020,10,02,11,54,15.00
2020,10,02,11,55,15.10
2020,10,02,11,56,15.10
2020,10,02,11,57,15.10
2020,10,02,11,58,15.10
2020,10,02,11,59,15.00
2020,10,02,12,00,15.00
2020,10,02,12,01,15.10
2020,10,02,12,02,15.10
2020,10,02,12,03,15.10
2020,10,02,12,04,15.20
2020,10,02,12,05,15.20
2020,10,02,12,06,15.20
2020,10,02,12,07,15.30
2020,10,02,12,08,15.30
2020,10,02,12,09,15.20
2020,10,02,12,10,15.20
2020,10,02,12,11,15.30
2020,10,02,12,12,15.30
2020,10,02,12,13,15.30
2020,10,02,12,14,15.30
2020,10,02,12,15,15.30
2020,10,02,12,16,15.30
2020,10,02,12,17,15.30
2020,10,02,12,18,15.40
2020,10,02,12,19,15.40
2020,10,02,12,20,15.40
2020,10,02,12,21,15.40
2020,10,02,12,22,15.40
2020,10,02,12,23,15.40
2020,10,02,12,24,15.50
2020,10,02,12,25,15.50
2020,10,02,12,26,15.60
2020,10,02,12,27,15.60
2020,10,02,12,28,15.60
2020,10,02,12,29,15.70
2020,10,02,12,30,15.70
2020,10,02,12,31,15.70
2020,10,02,12,32,15.70
2020,10,02,12,33,15.70
2020,10,02,12,34,15.70
2020,10,02,12,35,15.70
2020,10,02,12,36,15.70
2020,10,02,12,37,15.70
2020,10,02,12,38,15.70
2020,10,02,12,39,15.70
2020,10,02,12,40,15.70
2020,10,02,12,41,15.70
2020,10,02,12,42,15.70
2020,10,02,12,43,15.70
2020,10,02,12,44,15.70
2020,10,02,12,45,15.70
2020,10,02,12,46,15.80
2020,10,02,12,47,15.80
2020,10,02,12,48,15.80
2020,10,02,12,49,15.90
2020,10,02,12,50,15.90
2020,10,02,12,51,15.90
2020,10,02,12,52,15.90
2020,10,02,12,53,15.90
2020,10,02,12,54,15.90
2020,10,02,12,55,16.00
2020,10,02,12,56,16.00
2020,10,02,12,57,16.00
2020,10,02,12,58,16.00
2020,10,02,12,59,16.00
2020,10,02,13,00,16.00
2020,10,02,13,01,16.10
2020,10,02,13,02,16.10
2020,10,02,13,03,16.20
2020,10,02,13,04,16.30
2020,10,02,13,05,16.30
2020,10,02,13,06,16.30
2020,10,02,13,07,16.40
2020,10,02,13,08,16.40
2020,10,02,13,09,16.50
2020,10,02,13,10,16.50
2020,10,02,13,11,16.50
2020,10,02,13,12,16.60
2020,10,02,13,13,16.60
2020,10,02,13,14,16.60
2020,10,02,13,15,16.70
2020,10,02,13,16,16.70
2020,10,02,13,17,16.70
2020,10,02,13,18,16.70
2020,10,02,13,19,16.60
2020,10,02,13,20,16.60
2020,10,02,13,21,16.60
2020,10,02,13,22,16.70
2020,10,02,13,23,16.70
2020,10,02,13,24,16.80
2020,10,02,13,25,16.90
2020,10,02,13,26,17.00
2020,10,02,13,27,17.00
2020,10,02,13,28,17.10
2020,10,02,13,29,17.10
2020,10,02,13,30,17.10
2020,10,02,13,31,17.10
2020,10,02,13,32,17.20
2020,10,02,13,33,17.20
2020,10,02,13,34,17.20
2020,10,02,13,35,17.30
2020,10,02,13,36,17.30
2020,10,02,13,37,17.30
2020,10,02,13,38,17.40
2020,10,02,13,39,17.40
2020,10,02,13,40,17.50
2020,10,02,13,41,17.60
2020,10,02,13,42,17.60
2020,10,02,13,43,17.70
2020,10,02,13,44,17.80
2020,10,02,13,45,17.90
2020,10,02,13,46,17.90
2020,10,02,13,47,18.00
2020,10,02,13,48,18.10
2020,10,02,13,49,18.10
2020,10,02,13,50,18.20
2020,10,02,13,51,18.20
2020,10,02,13,52,18.30
2020,10,02,13,53,18.40
2020,10,02,13,54,18.40
2020,10,02,13,55,18.40
2020,10,02,13,56,18.50
2020,10,02,13,57,18.50
2020,10,02,13,58,18.60
2020,10,02,13,59,18.60
2020,10,02,14,00,18.70
2020,10,02,14,01,18.70
2020,10,02,14,02,18.80
2020,10,02,14,03,18.80
2020,10,02,14,04,18.80
2020,10,02,14,05,18.80
2020,10,02,14,06,18.80
2020,10,02,14,07,18.80
2020,10,02,14,08,18.80
2020,10,02,14,09,18.80
2020,10,02,14,10,18.80
2020,10,02,14,11,18.80
2020,10,02,14,12,18.90
2020,10,02,14,13,18.90
2020,10,02,14,14,18.90
2020,10,02,14,15,18.90
2020,10,02,14,16,18.90
2020,10,02,14,17,19.00
2020,10,02,14,18,19.00
2020,10,02,14,19,19.10
2020,10,02,14,20,19.10
2020,10,02,14,21,19.10
2020,10,02,14,22,19.20
2020,10,02,14,23,19.20
2020,10,02,14,24,19.30
2020,10,02,14,25,19.40
2020,10,02,14,26,19.40
2020,10,02,14,27,19.50
2020,10,02,14,28,19.60
2020,10,02,14,29,19.60
2020,10,02,14,30,19.70
2020,10,02,14,31,19.80
2020,10,02,14,32,19.80
2020,10,02,14,33,19.90
2020,10,02,14,34,19.90
2020,10,02,14,35,20.00
2020,10,02,14,36,20.10
2020,10,02,14,37,20.10
2020,10,02,14,38,20.20
2020,10,02,14,39,20.20
2020,10,02,14,40,20.30
2020,10,02,14,41,20.30
2020,10,02,14,42,20.40
2020,10,02,14,43,20.40
2020,10,02,14,44,20.50
2020,10,02,14,45,20.50
2020,10,02,14,46,20.60
2020,10,02,14,47,20.60
2020,10,02,14,48,20.70
2020,10,02,14,49,20.80
2020,10,02,14,50,20.80
2020,10,02,14,51,20.90
2020,10,02,14,52,20.90
2020,10,02,14,53,21.00
2020,10,02,14,54,21.00
2020,10,02,14,55,21.10
2020,10,02,14,56,21.10
2020,10,02,14,57,21.20
2020,10,02,14,58,21.30
2020,10,02,14,59,21.30
2020,10,02,15,00,21.40
2020,10,02,15,01,21.50
2020,10,02,15,02,21.50
2020,10,02,15,03,21.60
2020,10,02,15,04,21.60
2020,10,02,15,05,21.70
2020,10,02,15,06,21.80
2020,10,02,15,07,21.80
2020,10,02,15,08,21.90
2020,10,02,15,09,21.90
2020,10,02,15,10,22.00
2020,10,02,15,11,22.00
2020,10,02,15,12,22.10
2020,10,02,15,13,22.10
2020,10,02,15,14,22.10
2020,10,02,15,15,22.10
2020,10,02,15,16,22.20
2020,10,02,15,17,22.20
2020,10,02,15,18,22.20
2020,10,02,15,19,22.20
2020,10,02,15,20,22.30
2020,10,02,15,21,22.40
2020,10,02,15,22,22.40
2020,10,02,15,23,22.50
2020,10,02,15,24,22.50
2020,10,02,15,25,22.60
2020,10,02,15,26,22.60
2020,10,02,15,27,22.60
2020,10,02,15,28,22.60
2020,10,02,15,29,22.60
2020,10,02,15,30,22.60
2020,10,02,15,31,22.60
2020,10,02,15,32,22.60
2020,10,02,15,33,22.60
2020,10,02,15,34,22.60
2020,10,02,15,35,22.50
2020,10,02,15,36,22.50
2020,10,02,15,37,22.40
2020,10,02,15,38,22.40
2020,10,02,15,39,22.40
2020,10,02,15,40,22.30
2020,10,02,15,41,22.40
2020,10,02,15,42,22.40
2020,10,02,15,43,22.40
2020,10,02,15,44,22.40
2020,10,02,15,45,22.40
2020,10,02,15,46,22.40
2020,10,02,15,47,22.40
2020,10,02,15,48,22.50
2020,10,02,15,49,22.50
2020,10,02,15,50,22.60
2020,10,02,15,51,22.70
2020,10,02,15,52,22.70
2020,10,02,15,53,22.70
2020,10,02,15,54,22.80
2020,10,02,15,55,22.80
2020,10,02,15,56,22.80
2020,10,02,15,57,22.80
2020,10,02,15,58,22.80
2020,10,02,15,59,22.80
2020,10,02,16,00,22.80
2020,10,02,16,01,22.80
2020,10,02,16,02,22.80
2020,10,02,16,03,22.80
2020,10,02,16,04,22.80
2020,10,02,16,05,22.80
2020,10,02,16,06,22.80
2020,10,02,16,07,22.80
2020,10,02,16,08,22.90
2020,10,02,16,09,23.10
2020,10,02,16,10,23.10
2020,10,02,16,11,23.10
2020,10,02,16,12,23.10
2020,10,02,16,13,23.10
2020,10,02,16,14,23.10
2020,10,02,16,15,23.10
2020,10,02,16,16,23.20
2020,10,02,16,17,23.30
2020,10,02,16,18,23.30
2020,10,02,16,19,23.40
2020,10,02,16,20,23.50
2020,10,02,16,21,23.50
2020,10,02,16,22,23.60
2020,10,02,16,23,23.60
2020,10,02,16,24,23.60
2020,10,02,16,25,23.60
2020,10,02,16,26,23.60
2020,10,02,16,27,23.60
2020,10,02,16,28,23.50
2020,10,02,16,29,23.50
2020,10,02,16,30,23.50
2020,10,02,16,31,23.40
2020,10,02,16,32,23.40
2020,10,02,16,33,23.40
2020,10,02,16,34,23.40
2020,10,02,16,35,23.40
2020,10,02,16,36,23.40
2020,10,02,16,37,23.50
2020,10,02,16,38,23.50
2020,10,02,16,39,23.50
2020,10,02,16,40,23.60
2020,10,02,16,41,23.60
2020,10,02,16,42,23.60
2020,10,02,16,43,23.60
2020,10,02,16,44,23.60
2020,10,02,16,45,23.50
2020,10,02,16,46,23.40
2020,10,02,16,47,23.30
2020,10,02,16,48,23.20
2020,10,02,16,49,23.10
2020,10,02,16,50,23.00
2020,10,02,16,51,23.00
2020,10,02,16,52,22.90
2020,10,02,16,53,22.80
2020,10,02,16,54,22.80
2020,10,02,16,55,22.80
2020,10,02,16,56,22.80
2020,10,02,16,57,22.80
2020,10,02,16,58,22.70
2020,10,02,16,59,22.60
2020,10,02,17,00,22.60
2020,10,02,17,01,22.50
2020,10,02,17,02,22.40
2020,10,02,17,03,22.30
2020,10,02,17,04,22.20
2020,10,02,17,05,22.20
2020,10,02,17,06,22.20
2020,10,02,17,07,22.20
2020,10,02,17,08,22.10
2020,10,02,17,09,22.10
2020,10,02,17,10,22.10
2020,10,02,17,11,22.10
2020,10,02,17,12,22.10
2020,10,02,17,13,22.10
2020,10,02,17,14,22.10
2020,10,02,17,15,22.10
2020,10,02,17,16,22.10
2020,10,02,17,17,22.10
2020,10,02,17,18,22.10
2020,10,02,17,19,22.10